OPTUS C1

Last updated on Sat Aug 15 2026 00:02:57 GMT+0000 (Coordinated Universal Time)

1 27831U 03028B 26226.38698874 -.00000167 00000+0 00000+0 0 9998 2 27831 7.0311 68.6859 0005420 74.2992 114.8871 1.00271269 53647
UTC large
Height (km)
Speed (km/s)
/
Latitude / Longitude
Inclination (degrees)
Orbital Period (minutes)
Azimuth
Elevation
Range (km)
Doppler Factor

Next 0 passes for location: London (51.5072 / 0.1276)

No passes found over London.
OPTUS C1